M I D A S
Marine Information and Data Acquisition System
Tripno 1707 of the Zeeleeuw from 2009-06-08 08:01:10 to 2009-06-08 14:49:19
Back to CruiseResearch ActivitiesStationsMapUnderway DataData graphs

EquipmentUnitsComments
TimeDGPSUTC
LatitudeDGPSDM.mWGS84
LongitudeDGPSDM.mWGS84
SpeedMeteo Stationm/sRelative wind speed
DirectionMeteo StationdegRelative wind direction
TemperatureMeteo Stationdeg CelciusAir temperature
PressureMeteo StationPaAtmospheric pressure
HumidityMeteo Station%Relative humidity
Missing or incorrect values are displayed as -999
Metereological data collected by the RV Zeeleeuw from 2009-06-08 07:07:44 to 2009-06-08 14:58:17
                                                                                    Next 1000 lines
Time Latitude Longitude Speed Direction Temperature Pressure Humidity
2009-06-08 07:07:54 51°13.662 2°55.962 1.2 15 11.9 100730 89
2009-06-08 07:07:59 51°13.662 2°55.962 1 28 11.9 100730 89
2009-06-08 07:08:04 51°13.663 2°55.962 0.9 26 11.9 100730 89
2009-06-08 07:08:09 51°13.662 2°55.962 0.7 16 11.9 100730 89
2009-06-08 07:08:14 51°13.662 2°55.962 0.4 22 11.9 100730 89
2009-06-08 07:08:19 51°13.662 2°55.962 1.5 8 11.9 100730 89
2009-06-08 07:08:24 51°13.662 2°55.962 2.4 19 11.9 100730 89
2009-06-08 07:08:29 51°13.662 2°55.962 2.1 28 11.9 100730 89
2009-06-08 07:08:34 51°13.662 2°55.962 1.3 23 12 100730 89
2009-06-08 07:08:39 51°13.662 2°55.962 1.8 10 12 100730 89
2009-06-08 07:08:44 51°13.662 2°55.962 2 18 12 100730 89
2009-06-08 07:08:49 51°13.662 2°55.962 2.9 5 12 100730 89
2009-06-08 07:08:54 51°13.662 2°55.962 3.2 11 12 100730 89
2009-06-08 07:08:59 51°13.662 2°55.962 2.6 13 12 100730 89
2009-06-08 07:09:04 51°13.662 2°55.962 3.3 12 12 100730 89
2009-06-08 07:09:09 51°13.662 2°55.962 4.4 12 12 100730 89
2009-06-08 07:09:14 51°13.662 2°55.962 4.3 7 12 100730 89
2009-06-08 07:09:19 51°13.662 2°55.962 3.4 359 12 100730 89
2009-06-08 07:09:24 51°13.662 2°55.962 2.7 356 12 100740 88
2009-06-08 07:09:29 51°13.662 2°55.962 3.9 6 12 100740 88
2009-06-08 07:09:34 51°13.662 2°55.962 2.7 6 12 100730 87
2009-06-08 07:09:39 51°13.662 2°55.962 3.7 2 12 100730 87
2009-06-08 07:09:44 51°13.662 2°55.962 2.5 2 12 100740 86
2009-06-08 07:09:49 51°13.662 2°55.962 2.4 7 12 100740 86
2009-06-08 07:09:54 51°13.662 2°55.962 2.3 354 11.9 100730 86
2009-06-08 07:09:59 51°13.662 2°55.962 2.8 12 11.9 100730 86
2009-06-08 07:10:04 51°13.662 2°55.961 2.9 6 11.9 100730 86
2009-06-08 07:10:09 51°13.662 2°55.961 4.4 6 11.9 100730 86
2009-06-08 07:10:14 51°13.662 2°55.962 4.6 18 11.9 100730 86
2009-06-08 07:10:19 51°13.662 2°55.962 3.7 14 11.9 100730 86
2009-06-08 07:10:24 51°13.663 2°55.962 3.4 6 11.9 100730 87
2009-06-08 07:10:29 51°13.662 2°55.961 3.9 23 11.9 100730 87
2009-06-08 07:10:34 51°13.662 2°55.961 3.9 22 11.9 100730 87
2009-06-08 07:10:39 51°13.662 2°55.961 3.9 10 11.9 100730 87
2009-06-08 07:10:44 51°13.662 2°55.961 3.4 8 11.9 100730 86
2009-06-08 07:10:49 51°13.662 2°55.961 2.2 -999 11.9 100730 86
2009-06-08 07:10:54 51°13.662 2°55.961 3.2 3 11.9 100730 86
2009-06-08 07:10:59 51°13.662 2°55.961 4 1 11.9 100730 86
2009-06-08 07:11:04 51°13.662 2°55.961 3.7 6 11.9 100730 86
2009-06-08 07:11:09 51°13.662 2°55.961 4.1 14 11.9 100730 86
2009-06-08 07:11:14 51°13.663 2°55.961 3.8 9 11.9 100730 86
2009-06-08 07:11:19 51°13.663 2°55.961 3.6 9 11.9 100730 86
2009-06-08 07:11:24 51°13.662 2°55.961 4.2 8 11.8 100730 86
2009-06-08 07:11:29 51°13.662 2°55.961 3.4 3 11.8 100730 86
2009-06-08 07:11:34 51°13.662 2°55.961 2.4 2 11.8 100730 85
2009-06-08 07:11:39 51°13.662 2°55.961 3 3 11.8 100730 85
2009-06-08 07:11:44 51°13.662 2°55.961 3.7 11 11.8 100730 85
2009-06-08 07:11:49 51°13.662 2°55.961 5 16 11.8 100730 85
2009-06-08 07:11:54 51°13.662 2°55.961 4.7 17 11.8 100730 86
2009-06-08 07:11:59 51°13.662 2°55.961 4.1 13 11.8 100730 86
2009-06-08 07:12:04 51°13.662 2°55.961 3.7 11 11.8 100730 86
2009-06-08 07:12:09 51°13.662 2°55.961 2.9 7 11.8 100730 86
2009-06-08 07:12:14 51°13.662 2°55.961 4.4 23 11.8 100730 86
2009-06-08 07:12:19 51°13.662 2°55.961 3.8 24 11.8 100730 86
2009-06-08 07:12:24 51°13.662 2°55.961 3.6 21 11.8 100730 85
2009-06-08 07:12:29 51°13.662 2°55.961 3.7 23 11.8 100730 85
2009-06-08 07:12:34 51°13.662 2°55.961 3.3 21 11.8 100730 85
2009-06-08 07:12:39 51°13.662 2°55.961 3.1 30 11.8 100730 85
2009-06-08 07:12:44 51°13.662 2°55.961 2.6 24 11.8 100730 85
2009-06-08 07:12:49 51°13.662 2°55.961 2.9 27 11.8 100730 85
2009-06-08 07:12:54 51°13.661 2°55.961 2.8 24 11.8 100730 85
2009-06-08 07:12:59 51°13.661 2°55.961 3 24 11.8 100730 85
2009-06-08 07:13:04 51°13.661 2°55.961 3.9 29 11.8 100730 85
2009-06-08 07:13:09 51°13.661 2°55.961 2.6 25 11.8 100730 85
2009-06-08 07:13:14 51°13.661 2°55.961 3 27 11.8 100730 85
2009-06-08 07:13:19 51°13.661 2°55.961 2.5 27 11.8 100730 85
2009-06-08 07:13:24 51°13.661 2°55.961 2.5 22 11.8 100730 85
2009-06-08 07:13:29 51°13.661 2°55.961 2.6 30 11.8 100730 85
2009-06-08 07:13:34 51°13.661 2°55.961 2.7 27 11.8 100730 86
2009-06-08 07:13:39 51°13.661 2°55.961 2.9 17 11.8 100730 86
2009-06-08 07:13:44 51°13.661 2°55.961 2.5 4 11.8 100730 86
2009-06-08 07:13:49 51°13.661 2°55.961 3.1 6 11.8 100730 86
2009-06-08 07:13:54 51°13.661 2°55.961 3 6 11.9 100740 86
2009-06-08 07:13:59 51°13.661 2°55.961 3.5 11 11.9 100740 86
2009-06-08 07:14:04 51°13.661 2°55.961 3.3 9 11.9 100730 86
2009-06-08 07:14:09 51°13.661 2°55.961 3.4 19 11.9 100730 86
2009-06-08 07:14:14 51°13.661 2°55.961 3.8 10 11.9 100730 86
2009-06-08 07:14:19 51°13.661 2°55.961 2.4 5 11.9 100730 86
2009-06-08 07:14:24 51°13.662 2°55.961 3.6 1 11.9 100730 85
2009-06-08 07:14:29 51°13.661 2°55.961 3.3 358 11.9 100730 85
2009-06-08 07:14:34 51°13.661 2°55.961 2.9 353 11.9 100730 85
2009-06-08 07:14:39 51°13.661 2°55.961 2.2 7 11.9 100730 85
2009-06-08 07:14:44 51°13.661 2°55.961 3.6 3 11.9 100740 85
2009-06-08 07:14:49 51°13.661 2°55.961 3.1 3 11.9 100740 85
2009-06-08 07:14:54 51°13.661 2°55.961 3.3 359 11.9 100730 85
2009-06-08 07:14:59 51°13.661 2°55.961 3.8 356 11.9 100730 85
2009-06-08 07:15:04 51°13.661 2°55.962 3.8 1 11.9 100730 84
2009-06-08 07:15:09 51°13.661 2°55.961 2.3 6 11.9 100730 84
2009-06-08 07:15:14 51°13.661 2°55.961 2.2 5 11.9 100730 85
2009-06-08 07:15:19 51°13.661 2°55.961 2.9 23 11.9 100730 85
2009-06-08 07:15:24 51°13.661 2°55.961 3.1 19 11.9 100740 85
2009-06-08 07:15:29 51°13.661 2°55.961 3.4 30 11.9 100740 85
2009-06-08 07:15:34 51°13.661 2°55.961 2.7 24 11.9 100740 85
2009-06-08 07:15:39 51°13.661 2°55.961 2.3 17 11.9 100740 85
2009-06-08 07:15:44 51°13.661 2°55.961 3.3 33 11.9 100740 84
2009-06-08 07:15:49 51°13.661 2°55.961 2.6 27 11.9 100740 84
2009-06-08 07:15:54 51°13.661 2°55.961 2.1 21 11.9 100740 85
2009-06-08 07:15:59 51°13.661 2°55.961 1.8 15 11.9 100740 85
2009-06-08 07:16:04 51°13.661 2°55.961 1.7 14 12 100740 84
2009-06-08 07:16:09 51°13.661 2°55.961 1.5 358 12 100740 84
2009-06-08 07:16:14 51°13.661 2°55.961 1 14 12 100740 84
2009-06-08 07:16:19 51°13.662 2°55.961 2.9 16 12 100740 84
2009-06-08 07:16:24 51°13.662 2°55.961 2.8 13 12 100740 84
2009-06-08 07:16:29 51°13.662 2°55.961 2.1 12 12 100740 84
2009-06-08 07:16:34 51°13.661 2°55.961 2.1 5 12 100740 84
2009-06-08 07:16:39 51°13.661 2°55.961 2 9 12 100740 84
2009-06-08 07:16:44 51°13.661 2°55.961 2.3 18 12 100740 84
2009-06-08 07:16:49 51°13.661 2°55.961 2.1 23 12 100740 84
2009-06-08 07:16:54 51°13.661 2°55.961 2.4 20 12 100740 84
2009-06-08 07:16:59 51°13.661 2°55.961 3.3 20 12 100740 84
2009-06-08 07:17:04 51°13.662 2°55.961 2.7 23 12 100740 84
2009-06-08 07:17:09 51°13.662 2°55.961 2.5 29 12 100740 84
2009-06-08 07:17:14 51°13.662 2°55.961 2 29 12 100740 84
2009-06-08 07:17:19 51°13.662 2°55.961 2.5 24 12 100740 84
2009-06-08 07:17:24 51°13.662 2°55.961 1.9 11 12 100740 84
2009-06-08 07:17:29 51°13.662 2°55.961 2.6 356 12 100740 84
2009-06-08 07:17:34 51°13.662 2°55.961 2.6 5 12.1 100740 85
2009-06-08 07:17:39 51°13.662 2°55.961 2.4 16 12.1 100740 85
2009-06-08 07:17:44 51°13.662 2°55.961 2.4 23 12.1 100740 85
2009-06-08 07:17:49 51°13.662 2°55.961 1.6 23 12.1 100740 85
2009-06-08 07:17:54 51°13.662 2°55.961 2.2 29 12.1 100740 85
2009-06-08 07:17:59 51°13.662 2°55.961 2.7 28 12.1 100740 85
2009-06-08 07:18:04 51°13.662 2°55.961 3.4 25 12.1 100740 85
2009-06-08 07:18:09 51°13.662 2°55.961 3 14 12.1 100740 85
2009-06-08 07:18:14 51°13.662 2°55.961 3.3 25 12.2 100740 84
2009-06-08 07:18:19 51°13.662 2°55.961 4.3 30 12.2 100740 84
2009-06-08 07:18:24 51°13.662 2°55.961 3.6 27 12.2 100740 84
2009-06-08 07:18:29 51°13.662 2°55.961 3 23 12.2 100740 84
2009-06-08 07:18:34 51°13.662 2°55.961 3.3 31 12.2 100740 84
2009-06-08 07:18:39 51°13.662 2°55.962 2.4 21 12.2 100740 84
2009-06-08 07:18:44 51°13.662 2°55.962 3.3 34 12.2 100740 83
2009-06-08 07:18:49 51°13.662 2°55.962 3.2 33 12.2 100740 83
2009-06-08 07:18:54 51°13.662 2°55.962 3 26 12.2 100740 83
2009-06-08 07:18:59 51°13.662 2°55.961 2.6 37 12.2 100740 83
2009-06-08 07:19:04 51°13.662 2°55.961 2.6 20 12.2 100740 82
2009-06-08 07:19:09 51°13.662 2°55.961 1.7 53 12.2 100740 82
2009-06-08 07:19:14 51°13.662 2°55.962 2.7 33 12.1 100740 83
2009-06-08 07:19:19 51°13.662 2°55.962 3.3 39 12.1 100740 83
2009-06-08 07:19:24 51°13.662 2°55.961 3 24 12.1 100740 83
2009-06-08 07:19:29 51°13.662 2°55.962 2.1 29 12.1 100740 83
2009-06-08 07:19:34 51°13.662 2°55.962 2 23 12.2 100740 83
2009-06-08 07:19:39 51°13.662 2°55.962 2 27 12.2 100740 83
2009-06-08 07:19:44 51°13.662 2°55.962 1.9 16 12.2 100740 82
2009-06-08 07:19:49 51°13.662 2°55.962 2.6 3 12.2 100740 82
2009-06-08 07:19:54 51°13.662 2°55.962 3.3 12 12.2 100740 82
2009-06-08 07:19:59 51°13.662 2°55.962 3.1 16 12.2 100740 82
2009-06-08 07:20:04 51°13.661 2°55.961 4 25 12.2 100740 82
2009-06-08 07:20:09 51°13.661 2°55.961 4.5 25 12.2 100740 82
2009-06-08 07:20:14 51°13.661 2°55.959 4.1 30 12.2 100740 83
2009-06-08 07:20:19 51°13.661 2°55.959 3.4 26 12.2 100740 83
2009-06-08 07:20:24 51°13.662 2°55.959 3.3 26 12.2 100740 82
2009-06-08 07:20:29 51°13.662 2°55.96 3.3 31 12.2 100740 82
2009-06-08 07:20:34 51°13.662 2°55.96 4.1 21 12.2 100740 82
2009-06-08 07:20:39 51°13.662 2°55.961 3.5 19 12.2 100740 82
2009-06-08 07:20:44 51°13.662 2°55.961 3.1 25 12.2 100740 82
2009-06-08 07:20:49 51°13.661 2°55.96 2.9 27 12.2 100740 82
2009-06-08 07:20:54 51°13.661 2°55.96 3.1 25 12.2 100740 82
2009-06-08 07:20:59 51°13.661 2°55.96 3.4 18 12.2 100740 82
2009-06-08 07:21:04 51°13.662 2°55.96 2.8 23 12.2 100740 82
2009-06-08 07:21:09 51°13.662 2°55.96 3.8 31 12.2 100740 82
2009-06-08 07:21:14 51°13.662 2°55.96 4.7 42 12.2 100740 82
2009-06-08 07:21:19 51°13.662 2°55.96 3.7 56 12.2 100740 82
2009-06-08 07:21:24 51°13.661 2°55.961 4.3 28 12.2 100740 82
2009-06-08 07:21:29 51°13.661 2°55.961 4.3 25 12.2 100740 82
2009-06-08 07:21:34 51°13.661 2°55.961 2.6 28 12.2 100740 82
2009-06-08 07:21:39 51°13.661 2°55.961 2.4 33 12.2 100740 82
2009-06-08 07:21:44 51°13.662 2°55.961 2.6 39 12.2 100740 82
2009-06-08 07:21:49 51°13.661 2°55.961 3.3 36 12.2 100740 82
2009-06-08 07:21:54 51°13.661 2°55.961 3.4 37 12.2 100740 82
2009-06-08 07:21:59 51°13.661 2°55.961 3.3 35 12.2 100740 82
2009-06-08 07:22:04 51°13.661 2°55.961 4.1 29 12.2 100740 82
2009-06-08 07:22:09 51°13.661 2°55.961 2.6 31 12.2 100740 82
2009-06-08 07:22:14 51°13.662 2°55.961 2.3 26 12.2 100740 82
2009-06-08 07:22:19 51°13.662 2°55.962 1.3 40 12.2 100740 82
2009-06-08 07:22:24 51°13.662 2°55.962 1.3 22 12.2 100740 82
2009-06-08 07:22:29 51°13.662 2°55.962 2.5 24 12.2 100740 82
2009-06-08 07:22:34 51°13.662 2°55.962 3.5 24 12.2 100740 82
2009-06-08 07:22:39 51°13.662 2°55.962 2.9 26 12.2 100740 82
2009-06-08 07:22:44 51°13.662 2°55.962 2.6 31 12.2 100740 82
2009-06-08 07:22:49 51°13.662 2°55.963 2.7 22 12.2 100740 82
2009-06-08 07:22:54 51°13.662 2°55.963 2.5 28 12.2 100740 82
2009-06-08 07:22:59 51°13.662 2°55.962 2.3 24 12.2 100740 82
2009-06-08 07:23:04 51°13.662 2°55.962 2.3 33 12.2 100730 82
2009-06-08 07:23:09 51°13.662 2°55.962 1.8 35 12.2 100730 82
2009-06-08 07:23:14 51°13.662 2°55.962 2.5 30 12.2 100740 82
2009-06-08 07:23:19 51°13.662 2°55.962 2 40 12.2 100740 82
2009-06-08 07:23:24 51°13.662 2°55.962 2.4 27 12.3 100740 82
2009-06-08 07:23:29 51°13.662 2°55.962 2.6 52 12.3 100740 82
2009-06-08 07:23:34 51°13.662 2°55.962 2.7 24 12.3 100730 82
2009-06-08 07:23:39 51°13.662 2°55.963 2.5 51 12.3 100730 82
2009-06-08 07:23:44 51°13.662 2°55.963 2.4 45 12.3 100740 82
2009-06-08 07:23:49 51°13.662 2°55.963 1.5 51 12.3 100740 82
2009-06-08 07:23:54 51°13.662 2°55.963 1.4 26 12.3 100730 82
2009-06-08 07:23:59 51°13.662 2°55.962 2 44 12.3 100730 82
2009-06-08 07:24:04 51°13.662 2°55.963 2 41 12.3 100740 82
2009-06-08 07:24:09 51°13.662 2°55.963 2.7 42 12.3 100740 82
2009-06-08 07:24:14 51°13.662 2°55.963 2.3 41 12.3 100740 82
2009-06-08 07:24:19 51°13.662 2°55.963 2.3 38 12.3 100740 82
2009-06-08 07:24:24 51°13.662 2°55.961 2.3 41 12.3 100730 82
2009-06-08 07:24:29 51°13.662 2°55.961 2.2 37 12.3 100730 82
2009-06-08 07:24:34 51°13.662 2°55.961 2.3 36 12.3 100730 82
2009-06-08 07:24:39 51°13.662 2°55.961 2.2 37 12.3 100730 82
2009-06-08 07:24:44 51°13.662 2°55.961 2.3 37 12.3 100730 82
2009-06-08 07:24:49 51°13.662 2°55.961 1.6 37 12.3 100730 82
2009-06-08 07:24:54 51°13.662 2°55.962 2.7 29 12.3 100740 82
2009-06-08 07:24:59 51°13.662 2°55.962 2.5 29 12.3 100740 82
2009-06-08 07:25:04 51°13.662 2°55.962 2.6 28 12.3 100740 82
2009-06-08 07:25:09 51°13.662 2°55.963 2.2 26 12.3 100740 82
2009-06-08 07:25:14 51°13.662 2°55.963 2.9 15 12.3 100740 82
2009-06-08 07:25:19 51°13.662 2°55.962 3.1 2 12.3 100740 82
2009-06-08 07:25:24 51°13.662 2°55.961 1.8 9 12.3 100740 82
2009-06-08 07:25:29 51°13.662 2°55.961 2.7 25 12.3 100740 82
2009-06-08 07:25:34 51°13.662 2°55.961 3.5 37 12.4 100740 82
2009-06-08 07:25:39 51°13.662 2°55.961 4.8 25 12.4 100740 82
2009-06-08 07:25:44 51°13.662 2°55.961 4.1 23 12.4 100740 83
2009-06-08 07:25:49 51°13.662 2°55.961 3.6 37 12.4 100740 83
2009-06-08 07:25:54 51°13.662 2°55.961 3.6 23 12.4 100740 83
2009-06-08 07:25:59 51°13.662 2°55.961 3.9 20 12.4 100740 83
2009-06-08 07:26:04 51°13.661 2°55.96 4.6 29 12.4 100740 81
2009-06-08 07:26:09 51°13.661 2°55.96 5.3 26 12.4 100740 81
2009-06-08 07:26:14 51°13.661 2°55.96 4 22 12.4 100740 80
2009-06-08 07:26:19 51°13.661 2°55.96 4.5 28 12.4 100740 80
2009-06-08 07:26:24 51°13.661 2°55.96 4.2 31 12.3 100740 80
2009-06-08 07:26:29 51°13.661 2°55.96 4.8 26 12.3 100740 80
2009-06-08 07:26:34 51°13.661 2°55.96 4.5 23 12.3 100740 79
2009-06-08 07:26:39 51°13.661 2°55.961 4.4 28 12.3 100740 79
2009-06-08 07:26:44 51°13.661 2°55.961 4.7 26 12.3 100740 79
2009-06-08 07:26:49 51°13.661 2°55.961 4.8 19 12.3 100740 79
2009-06-08 07:26:54 51°13.661 2°55.961 3.6 24 12.3 100740 79
2009-06-08 07:26:59 51°13.661 2°55.961 3.3 27 12.3 100740 79
2009-06-08 07:27:04 51°13.661 2°55.961 3.4 32 12.2 100740 79
2009-06-08 07:27:09 51°13.661 2°55.96 3.1 31 12.2 100740 79
2009-06-08 07:27:14 51°13.661 2°55.96 2.6 34 12.3 100740 79
2009-06-08 07:27:19 51°13.661 2°55.96 3.2 30 12.3 100740 79
2009-06-08 07:27:24 51°13.661 2°55.96 3.7 37 12.3 100740 80
2009-06-08 07:27:29 51°13.661 2°55.96 3.2 34 12.3 100740 80
2009-06-08 07:27:34 51°13.661 2°55.961 3.7 34 12.3 100740 80
2009-06-08 07:27:39 51°13.661 2°55.961 4.7 34 12.3 100740 80
2009-06-08 07:27:44 51°13.661 2°55.961 4.2 39 12.3 100740 80
2009-06-08 07:27:49 51°13.661 2°55.961 3.8 35 12.3 100740 80
2009-06-08 07:27:54 51°13.661 2°55.961 4.2 34 12.3 100740 80
2009-06-08 07:27:59 51°13.661 2°55.961 3.2 36 12.3 100740 80
2009-06-08 07:28:04 51°13.661 2°55.961 3.1 36 12.3 100740 80
2009-06-08 07:28:09 51°13.661 2°55.961 2.6 35 12.3 100740 80
2009-06-08 07:28:14 51°13.661 2°55.961 2.3 35 12.3 100740 79
2009-06-08 07:28:19 51°13.661 2°55.961 2 29 12.3 100740 79
2009-06-08 07:28:24 51°13.661 2°55.961 2 28 12.3 100750 79
2009-06-08 07:28:29 51°13.661 2°55.961 2.6 37 12.3 100750 79
2009-06-08 07:28:34 51°13.661 2°55.961 3.1 40 12.3 100740 79
2009-06-08 07:28:39 51°13.661 2°55.961 2.6 37 12.3 100740 79
2009-06-08 07:28:44 51°13.662 2°55.961 2.6 34 12.3 100750 79
2009-06-08 07:28:49 51°13.662 2°55.961 1.8 32 12.3 100750 79
2009-06-08 07:28:54 51°13.662 2°55.961 1.7 34 12.3 100740 79
2009-06-08 07:28:59 51°13.661 2°55.961 2.5 30 12.3 100740 79
2009-06-08 07:29:04 51°13.661 2°55.961 2.4 36 12.3 100750 78
2009-06-08 07:29:09 51°13.661 2°55.96 2.8 30 12.3 100750 78
2009-06-08 07:29:14 51°13.661 2°55.96 1.8 28 12.3 100750 78
2009-06-08 07:29:19 51°13.661 2°55.96 2.3 37 12.3 100750 78
2009-06-08 07:29:24 51°13.661 2°55.961 3.1 31 12.3 100740 79
2009-06-08 07:29:29 51°13.661 2°55.961 2.6 31 12.3 100740 79
2009-06-08 07:29:34 51°13.661 2°55.961 2.4 25 12.3 100740 79
2009-06-08 07:29:39 51°13.661 2°55.961 3.2 21 12.3 100740 79
2009-06-08 07:29:44 51°13.661 2°55.961 2.5 29 12.3 100740 79
2009-06-08 07:29:49 51°13.662 2°55.961 3 14 12.3 100740 79
2009-06-08 07:29:54 51°13.662 2°55.961 3 17 12.3 100740 79
2009-06-08 07:29:59 51°13.662 2°55.961 2.6 23 12.3 100740 79
2009-06-08 07:30:04 51°13.662 2°55.961 2.7 20 12.3 100740 79
2009-06-08 07:30:09 51°13.662 2°55.961 2.5 38 12.3 100740 79
2009-06-08 07:30:14 51°13.662 2°55.961 2.6 40 12.4 100740 79
2009-06-08 07:30:19 51°13.662 2°55.961 2.7 36 12.4 100740 79
2009-06-08 07:30:24 51°13.662 2°55.961 2.1 31 12.4 100750 79
2009-06-08 07:30:29 51°13.661 2°55.961 1.5 30 12.4 100750 79
2009-06-08 07:30:34 51°13.662 2°55.962 2.6 26 12.4 100750 79
2009-06-08 07:30:39 51°13.663 2°55.963 2 35 12.4 100750 79
2009-06-08 07:30:44 51°13.663 2°55.963 1.9 36 12.4 100740 79
2009-06-08 07:30:49 51°13.664 2°55.964 2.3 21 12.4 100740 79
2009-06-08 07:30:54 51°13.665 2°55.964 2.7 33 12.4 100750 79
2009-06-08 07:30:59 51°13.665 2°55.964 1.5 21 12.4 100750 79
2009-06-08 07:31:04 51°13.664 2°55.963 1.6 21 12.4 100740 79
2009-06-08 07:31:09 51°13.663 2°55.962 2.4 23 12.4 100740 79
2009-06-08 07:31:14 51°13.662 2°55.961 2.6 19 12.4 100740 79
2009-06-08 07:31:19 51°13.661 2°55.96 2 14 12.4 100740 79
2009-06-08 07:31:24 51°13.661 2°55.96 1.8 10 12.5 100740 79
2009-06-08 07:31:29 51°13.661 2°55.96 1.7 10 12.5 100740 79
2009-06-08 07:31:34 51°13.661 2°55.961 1.6 7 12.5 100740 80
2009-06-08 07:31:39 51°13.662 2°55.961 1.2 7 12.5 100740 80
2009-06-08 07:31:44 51°13.662 2°55.961 1.7 16 12.5 100740 80
2009-06-08 07:31:49 51°13.662 2°55.961 2 14 12.5 100740 80
2009-06-08 07:31:54 51°13.662 2°55.962 1.4 15 12.6 100740 80
2009-06-08 07:31:59 51°13.662 2°55.962 1.7 13 12.6 100740 80
2009-06-08 07:32:04 51°13.662 2°55.962 2.2 8 12.6 100740 80
2009-06-08 07:32:09 51°13.662 2°55.962 1.9 15 12.6 100740 80
2009-06-08 07:32:14 51°13.662 2°55.962 1.9 11 12.6 100740 80
2009-06-08 07:32:19 51°13.662 2°55.962 2.7 10 12.6 100740 80
2009-06-08 07:32:24 51°13.662 2°55.962 2.5 2 12.6 100750 79
2009-06-08 07:32:29 51°13.663 2°55.963 2.6 6 12.6 100750 79
2009-06-08 07:32:34 51°13.663 2°55.963 2.6 18 12.6 100740 79
2009-06-08 07:32:39 51°13.662 2°55.962 4.2 12 12.6 100740 79
2009-06-08 07:32:44 51°13.66 2°55.96 3.6 358 12.6 100740 78
2009-06-08 07:32:49 51°13.659 2°55.959 3.3 21 12.6 100740 78
2009-06-08 07:32:54 51°13.658 2°55.958 5.1 16 12.6 100750 77
2009-06-08 07:32:59 51°13.658 2°55.958 4.4 19 12.6 100750 77
2009-06-08 07:33:04 51°13.658 2°55.958 4.6 33 12.6 100740 77
2009-06-08 07:33:09 51°13.658 2°55.958 3.8 26 12.6 100740 77
2009-06-08 07:33:14 51°13.659 2°55.959 3.8 34 12.6 100740 77
2009-06-08 07:33:19 51°13.659 2°55.959 2.6 33 12.6 100740 77
2009-06-08 07:33:24 51°13.66 2°55.96 2.9 22 12.6 100750 77
2009-06-08 07:33:29 51°13.66 2°55.96 2.9 30 12.6 100750 77
2009-06-08 07:33:34 51°13.66 2°55.96 3.8 26 12.6 100750 77
2009-06-08 07:33:39 51°13.66 2°55.96 2.8 24 12.6 100750 77
2009-06-08 07:33:44 51°13.66 2°55.96 3.1 16 12.6 100740 77
2009-06-08 07:33:49 51°13.66 2°55.96 2.5 8 12.6 100740 77
2009-06-08 07:33:54 51°13.66 2°55.96 2.6 9 12.5 100750 77
2009-06-08 07:33:59 51°13.66 2°55.96 3.3 12 12.5 100750 77
2009-06-08 07:34:04 51°13.66 2°55.96 3 20 12.5 100750 77
2009-06-08 07:34:09 51°13.661 2°55.96 3.1 11 12.5 100750 77
2009-06-08 07:34:14 51°13.66 2°55.96 2.6 8 12.5 100750 76
2009-06-08 07:34:19 51°13.661 2°55.961 2.6 6 12.5 100750 76
2009-06-08 07:34:24 51°13.661 2°55.961 3 11 12.5 100740 76
2009-06-08 07:34:29 51°13.661 2°55.961 2.8 22 12.5 100740 76
2009-06-08 07:34:34 51°13.661 2°55.961 2.9 38 12.5 100750 77
2009-06-08 07:34:39 51°13.661 2°55.961 2.9 42 12.5 100750 77
2009-06-08 07:34:44 51°13.661 2°55.961 2.2 35 12.5 100740 77
2009-06-08 07:34:49 51°13.661 2°55.961 2.3 32 12.5 100740 77
2009-06-08 07:34:54 51°13.661 2°55.962 2.4 357 12.5 100740 77
2009-06-08 07:34:59 51°13.661 2°55.962 2.5 31 12.5 100740 77
2009-06-08 07:35:04 51°13.661 2°55.962 2.8 7 12.5 100750 77
2009-06-08 07:35:09 51°13.661 2°55.962 4.1 12 12.5 100750 77
2009-06-08 07:35:14 51°13.661 2°55.962 4.5 8 12.5 100750 77
2009-06-08 07:35:19 51°13.661 2°55.962 3.5 7 12.5 100750 77
2009-06-08 07:35:24 51°13.662 2°55.962 3.4 10 12.6 100750 78
2009-06-08 07:35:29 51°13.662 2°55.962 2.9 7 12.6 100750 78
2009-06-08 07:35:34 51°13.662 2°55.962 4.4 7 12.5 100750 77
2009-06-08 07:35:39 51°13.662 2°55.962 3 1 12.5 100750 77
2009-06-08 07:35:44 51°13.662 2°55.962 3.6 4 12.5 100750 76
2009-06-08 07:35:49 51°13.662 2°55.962 2.8 10 12.5 100750 76
2009-06-08 07:35:54 51°13.662 2°55.962 3.6 5 12.5 100740 77
2009-06-08 07:35:59 51°13.662 2°55.962 3 359 12.5 100740 77
2009-06-08 07:36:04 51°13.662 2°55.962 3.2 356 12.5 100750 77
2009-06-08 07:36:09 51°13.662 2°55.962 2.6 358 12.5 100750 77
2009-06-08 07:36:14 51°13.662 2°55.962 2.1 359 12.5 100750 76
2009-06-08 07:36:19 51°13.662 2°55.962 1.7 7 12.5 100750 76
2009-06-08 07:36:24 51°13.662 2°55.962 1.8 347 12.5 100750 76
2009-06-08 07:36:29 51°13.662 2°55.962 1.6 13 12.5 100750 76
2009-06-08 07:36:34 51°13.662 2°55.963 1.5 23 12.5 100740 76
2009-06-08 07:36:39 51°13.662 2°55.963 1.8 20 12.5 100740 76
2009-06-08 07:36:44 51°13.662 2°55.963 1.9 35 12.5 100750 76
2009-06-08 07:36:49 51°13.663 2°55.963 1.7 15 12.5 100750 76
2009-06-08 07:36:54 51°13.663 2°55.962 2.9 17 12.5 100740 77
2009-06-08 07:36:59 51°13.663 2°55.962 2.7 18 12.5 100740 77
2009-06-08 07:37:04 51°13.663 2°55.962 2.3 356 12.5 100750 77
2009-06-08 07:37:09 51°13.663 2°55.963 2.2 352 12.5 100750 77
2009-06-08 07:37:14 51°13.663 2°55.963 3.2 17 12.5 100740 77
2009-06-08 07:37:19 51°13.663 2°55.963 3.4 26 12.5 100740 77
2009-06-08 07:37:24 51°13.663 2°55.963 3.4 24 12.5 100740 77
2009-06-08 07:37:29 51°13.663 2°55.963 4.2 20 12.5 100740 77
2009-06-08 07:37:34 51°13.663 2°55.963 4.4 19 12.5 100750 78
2009-06-08 07:37:39 51°13.663 2°55.963 3.8 15 12.5 100750 78
2009-06-08 07:37:44 51°13.663 2°55.963 3.2 10 12.5 100750 77
2009-06-08 07:37:49 51°13.663 2°55.963 5 19 12.5 100750 77
2009-06-08 07:37:54 51°13.663 2°55.963 3.7 19 12.4 100750 76
2009-06-08 07:37:59 51°13.663 2°55.963 3.5 14 12.4 100750 76
2009-06-08 07:38:04 51°13.663 2°55.963 2.9 15 12.4 100750 76
2009-06-08 07:38:09 51°13.663 2°55.963 3.9 13 12.4 100750 76
2009-06-08 07:38:14 51°13.663 2°55.963 4.1 22 12.4 100750 76
2009-06-08 07:38:19 51°13.663 2°55.963 4 8 12.4 100750 76
2009-06-08 07:38:24 51°13.663 2°55.963 4 10 12.4 100740 76
2009-06-08 07:38:29 51°13.663 2°55.963 4.6 8 12.4 100740 76
2009-06-08 07:38:34 51°13.663 2°55.963 6.4 8 12.4 100740 76
2009-06-08 07:38:39 51°13.663 2°55.963 4 10 12.4 100740 76
2009-06-08 07:38:44 51°13.663 2°55.963 3.3 26 12.4 100740 76
2009-06-08 07:38:49 51°13.663 2°55.963 2.8 16 12.4 100740 76
2009-06-08 07:38:54 51°13.663 2°55.963 2.6 15 12.4 100750 76
2009-06-08 07:38:59 51°13.662 2°55.963 2 20 12.4 100750 76
2009-06-08 07:39:04 51°13.663 2°55.963 2.9 19 12.4 100740 76
2009-06-08 07:39:09 51°13.663 2°55.963 2.1 11 12.4 100740 76
2009-06-08 07:39:14 51°13.663 2°55.963 2.4 9 12.4 100750 76
2009-06-08 07:39:19 51°13.663 2°55.963 4.2 14 12.4 100750 76
2009-06-08 07:39:24 51°13.663 2°55.963 3.6 2 12.4 100750 76
2009-06-08 07:39:29 51°13.663 2°55.963 5 7 12.4 100750 76
2009-06-08 07:39:34 51°13.663 2°55.963 4.1 7 12.4 100750 76
2009-06-08 07:39:39 51°13.663 2°55.963 4.4 6 12.4 100750 76
2009-06-08 07:39:44 51°13.663 2°55.962 5.6 9 12.4 100750 76
2009-06-08 07:39:49 51°13.663 2°55.962 4.6 9 12.4 100750 76
2009-06-08 07:39:54 51°13.662 2°55.962 4.5 10 12.4 100740 76
2009-06-08 07:39:59 51°13.662 2°55.962 3.9 10 12.4 100740 76
2009-06-08 07:40:04 51°13.662 2°55.962 3.8 6 12.4 100750 76
2009-06-08 07:40:09 51°13.662 2°55.962 3.7 18 12.4 100750 76
2009-06-08 07:40:14 51°13.662 2°55.962 3.3 14 12.4 100740 75
2009-06-08 07:40:19 51°13.662 2°55.962 3.3 8 12.4 100740 75
2009-06-08 07:40:24 51°13.662 2°55.962 3.3 15 12.3 100740 75
2009-06-08 07:40:29 51°13.662 2°55.962 2.5 5 12.3 100740 75
2009-06-08 07:40:34 51°13.662 2°55.962 3.1 5 12.3 100740 76
2009-06-08 07:40:39 51°13.662 2°55.962 2.6 358 12.3 100740 76
2009-06-08 07:40:44 51°13.662 2°55.962 2.3 358 12.3 100740 76
2009-06-08 07:40:49 51°13.662 2°55.962 2.1 7 12.3 100740 76
2009-06-08 07:40:54 51°13.662 2°55.962 2.6 9 12.3 100740 76
2009-06-08 07:40:59 51°13.662 2°55.962 2.8 2 12.3 100740 76
2009-06-08 07:41:04 51°13.663 2°55.964 3 7 12.3 100740 77
2009-06-08 07:41:09 51°13.664 2°55.964 2.6 7 12.3 100740 77
2009-06-08 07:41:14 51°13.663 2°55.964 2.2 15 12.3 100740 77
2009-06-08 07:41:19 51°13.662 2°55.962 1.7 10 12.3 100740 77
2009-06-08 07:41:24 51°13.661 2°55.962 2.1 10 12.3 100740 77
2009-06-08 07:41:29 51°13.662 2°55.962 1.5 6 12.3 100740 77
2009-06-08 07:41:34 51°13.662 2°55.963 2.1 360 12.4 100740 77
2009-06-08 07:41:39 51°13.662 2°55.963 2.9 9 12.4 100740 77
2009-06-08 07:41:44 51°13.663 2°55.963 2.6 24 12.4 100740 77
2009-06-08 07:41:49 51°13.663 2°55.963 3.3 24 12.4 100740 77
2009-06-08 07:41:54 51°13.663 2°55.964 3.2 32 12.4 100740 77
2009-06-08 07:41:59 51°13.663 2°55.964 2.5 20 12.4 100740 77
2009-06-08 07:42:04 51°13.664 2°55.964 2.3 26 12.4 100740 77
2009-06-08 07:42:09 51°13.664 2°55.963 2.8 22 12.4 100740 77
2009-06-08 07:42:14 51°13.664 2°55.964 3.4 29 12.4 100740 77
2009-06-08 07:42:19 51°13.664 2°55.963 2.6 32 12.4 100740 77
2009-06-08 07:42:24 51°13.663 2°55.963 2.3 23 12.4 100740 77
2009-06-08 07:42:29 51°13.663 2°55.963 2.6 31 12.4 100740 77
2009-06-08 07:42:34 51°13.663 2°55.963 2.9 29 12.4 100740 77
2009-06-08 07:42:39 51°13.664 2°55.964 2 21 12.4 100740 77
2009-06-08 07:42:44 51°13.664 2°55.964 2.6 29 12.4 100740 77
2009-06-08 07:42:49 51°13.664 2°55.964 2.2 17 12.4 100740 77
2009-06-08 07:42:54 51°13.664 2°55.963 1.8 31 12.4 100740 76
2009-06-08 07:42:59 51°13.663 2°55.963 3.9 43 12.4 100740 76
2009-06-08 07:43:04 51°13.663 2°55.963 4 38 12.4 100740 76
2009-06-08 07:43:09 51°13.663 2°55.963 4 39 12.4 100740 76
2009-06-08 07:43:14 51°13.663 2°55.964 3.6 38 12.4 100740 76
2009-06-08 07:43:19 51°13.664 2°55.964 3.5 35 12.4 100740 76
2009-06-08 07:43:24 51°13.664 2°55.964 3.6 35 12.4 100740 76
2009-06-08 07:43:29 51°13.664 2°55.965 2.9 29 12.4 100740 76
2009-06-08 07:43:34 51°13.664 2°55.964 2.8 34 12.4 100740 76
2009-06-08 07:43:39 51°13.664 2°55.964 2.1 35 12.4 100740 76
2009-06-08 07:43:44 51°13.664 2°55.964 2.3 25 12.4 100740 77
2009-06-08 07:43:49 51°13.664 2°55.964 1.8 28 12.4 100740 77
2009-06-08 07:43:54 51°13.664 2°55.964 1.3 29 12.4 100740 77
2009-06-08 07:43:59 51°13.664 2°55.963 1.5 34 12.4 100740 77
2009-06-08 07:44:04 51°13.663 2°55.963 2.3 44 12.5 100740 77
2009-06-08 07:44:09 51°13.663 2°55.963 2.9 40 12.5 100740 77
2009-06-08 07:44:14 51°13.662 2°55.962 2.3 32 12.5 100740 77
2009-06-08 07:44:19 51°13.663 2°55.963 4 38 12.5 100740 77
2009-06-08 07:44:24 51°13.662 2°55.962 3 35 12.5 100740 78
2009-06-08 07:44:29 51°13.662 2°55.962 3 41 12.5 100740 78
2009-06-08 07:44:34 51°13.662 2°55.962 2.8 33 12.5 100740 77
2009-06-08 07:44:39 51°13.663 2°55.963 2.4 34 12.5 100740 77
2009-06-08 07:44:44 51°13.664 2°55.963 3 40 12.5 100740 77
2009-06-08 07:44:49 51°13.664 2°55.964 3.3 38 12.5 100740 77
2009-06-08 07:44:54 51°13.663 2°55.963 3 37 12.5 100740 77
2009-06-08 07:44:59 51°13.663 2°55.962 2.9 37 12.5 100740 77
2009-06-08 07:45:04 51°13.662 2°55.962 2.9 37 12.5 100740 77
2009-06-08 07:45:09 51°13.662 2°55.962 2.9 37 12.5 100740 77
2009-06-08 07:45:14 51°13.662 2°55.962 2.7 40 12.5 100740 77
2009-06-08 07:45:19 51°13.662 2°55.962 2.9 41 12.5 100740 77
2009-06-08 07:45:24 51°13.662 2°55.962 4.1 38 12.5 100740 77
2009-06-08 07:45:29 51°13.662 2°55.962 3.2 31 12.5 100740 77
2009-06-08 07:45:34 51°13.662 2°55.961 2.1 17 12.5 100740 77
2009-06-08 07:45:39 51°13.662 2°55.962 2.3 28 12.5 100740 77
2009-06-08 07:45:44 51°13.662 2°55.962 3 22 12.5 100740 77
2009-06-08 07:45:49 51°13.662 2°55.961 2.7 20 12.5 100740 77
2009-06-08 07:45:54 51°13.662 2°55.961 3.6 22 12.5 100740 77
2009-06-08 07:45:59 51°13.662 2°55.961 3.6 22 12.5 100740 77
2009-06-08 07:46:04 51°13.662 2°55.962 3.7 25 12.6 100740 78
2009-06-08 07:46:09 51°13.662 2°55.962 3.4 25 12.6 100740 78
2009-06-08 07:46:14 51°13.662 2°55.961 3.6 29 12.6 100740 77
2009-06-08 07:46:19 51°13.662 2°55.961 3.8 32 12.6 100740 77
2009-06-08 07:46:24 51°13.662 2°55.961 4.8 38 12.5 100740 77
2009-06-08 07:46:29 51°13.662 2°55.961 3.5 56 12.5 100740 77
2009-06-08 07:46:34 51°13.662 2°55.962 3.2 22 12.5 100740 77
2009-06-08 07:46:38 51°13.662 2°55.961 1.4 17 12.5 100740 77
2009-06-08 07:46:44 51°13.662 2°55.962 1.5 6 12.5 100740 76
2009-06-08 07:46:49 51°13.662 2°55.961 1.2 19 12.5 100740 76
2009-06-08 07:46:53 51°13.662 2°55.961 2.1 19 12.5 100730 76
2009-06-08 07:46:58 51°13.662 2°55.961 2.5 30 12.5 100730 76
2009-06-08 07:47:03 51°13.664 2°55.964 2.1 23 12.5 100740 76
2009-06-08 07:47:08 51°13.665 2°55.965 2.3 13 12.5 100740 76
2009-06-08 07:47:13 51°13.663 2°55.963 1.8 14 12.5 100730 77
2009-06-08 07:47:18 51°13.662 2°55.962 2.4 28 12.5 100730 77
2009-06-08 07:47:22 51°13.663 2°55.962 2.4 10 12.5 100730 77
2009-06-08 07:47:27 51°13.662 2°55.962 1.7 31 12.5 100730 77
2009-06-08 07:47:32 51°13.662 2°55.962 2.2 31 12.5 100730 77
2009-06-08 07:47:37 51°13.662 2°55.962 1.3 16 12.5 100730 77
2009-06-08 07:47:42 51°13.662 2°55.962 1.9 17 12.5 100730 77
2009-06-08 07:47:46 51°13.662 2°55.961 2 31 12.5 100730 77
2009-06-08 07:47:51 51°13.662 2°55.961 1.9 19 12.6 100730 77
2009-06-08 07:47:56 51°13.662 2°55.961 2.8 19 12.6 100730 77
2009-06-08 07:48:01 51°13.662 2°55.962 2.6 5 12.6 100730 77
2009-06-08 07:48:06 51°13.661 2°55.961 4.1 13 12.6 100730 77
2009-06-08 07:48:10 51°13.661 2°55.961 3.5 7 12.6 100740 78
2009-06-08 07:48:16 51°13.663 2°55.963 2.9 7 12.6 100740 78
2009-06-08 07:48:21 51°13.664 2°55.965 2.7 16 12.6 100740 78
2009-06-08 07:48:25 51°13.665 2°55.966 3.9 11 12.6 100740 78
2009-06-08 07:48:30 51°13.665 2°55.965 3.8 10 12.6 100730 77
2009-06-08 07:48:35 51°13.663 2°55.963 3.4 18 12.6 100730 77
2009-06-08 07:48:41 51°13.662 2°55.961 3.3 24 12.6 100730 77
2009-06-08 07:48:45 51°13.661 2°55.961 3.9 28 12.6 100730 77
2009-06-08 07:48:50 51°13.662 2°55.961 3.8 19 12.6 100730 77
2009-06-08 07:48:55 51°13.662 2°55.961 3.1 35 12.6 100730 77
2009-06-08 07:49:01 51°13.662 2°55.961 3.4 31 12.6 100740 77
2009-06-08 07:49:06 51°13.662 2°55.961 3.2 8 12.6 100740 77
2009-06-08 07:49:10 51°13.662 2°55.962 3.9 12 12.6 100740 76
2009-06-08 07:49:15 51°13.663 2°55.963 2.9 17 12.6 100740 76
2009-06-08 07:49:21 51°13.664 2°55.963 2.6 23 12.6 100740 76
2009-06-08 07:49:26 51°13.664 2°55.964 3.5 25 12.6 100740 76
2009-06-08 07:49:30 51°13.664 2°55.964 3.4 18 12.6 100740 77
2009-06-08 07:49:35 51°13.665 2°55.965 2.5 5 12.6 100740 77
2009-06-08 07:49:40 51°13.664 2°55.964 2.8 16 12.7 100730 77
2009-06-08 07:49:45 51°13.663 2°55.962 3 23 12.7 100730 77
2009-06-08 07:49:50 51°13.662 2°55.962 2.8 15 12.7 100740 77
2009-06-08 07:49:56 51°13.662 2°55.962 2.4 13 12.7 100740 77
2009-06-08 07:50:00 51°13.662 2°55.962 2.6 18 12.7 100740 77
2009-06-08 07:50:05 51°13.662 2°55.962 2.4 15 12.7 100740 77
2009-06-08 07:50:10 51°13.661 2°55.962 2.3 17 12.7 100740 76
2009-06-08 07:50:16 51°13.661 2°55.962 2.3 16 12.7 100740 76
2009-06-08 07:50:21 51°13.661 2°55.962 1.9 18 12.7 100740 76
2009-06-08 07:50:25 51°13.661 2°55.962 1.5 23 12.7 100740 76
2009-06-08 07:50:30 51°13.661 2°55.962 1.2 24 12.7 100740 76
2009-06-08 07:50:36 51°13.661 2°55.962 1.6 14 12.7 100740 76
2009-06-08 07:50:41 51°13.661 2°55.962 1.3 22 12.7 100740 76
2009-06-08 07:50:45 51°13.661 2°55.962 1.5 355 12.7 100740 76
2009-06-08 07:50:50 51°13.661 2°55.962 1.9 354 12.7 100740 76
2009-06-08 07:50:55 51°13.661 2°55.962 1.6 360 12.7 100740 76
2009-06-08 07:51:01 51°13.661 2°55.962 1.7 359 12.7 100730 76
2009-06-08 07:51:05 51°13.661 2°55.962 2.2 2 12.7 100730 76
2009-06-08 07:51:10 51°13.66 2°55.962 1.9 4 12.7 100730 76
2009-06-08 07:51:15 51°13.659 2°55.961 1.7 2 12.7 100730 76
2009-06-08 07:51:21 51°13.659 2°55.961 1.7 3 12.7 100730 76
2009-06-08 07:51:26 51°13.66 2°55.962 2 351 12.7 100730 76
2009-06-08 07:51:30 51°13.661 2°55.963 1.5 348 12.7 100740 76
2009-06-08 07:51:35 51°13.662 2°55.963 1.4 8 12.7 100740 76
2009-06-08 07:51:40 51°13.662 2°55.963 1.4 24 12.7 100740 76
2009-06-08 07:51:46 51°13.662 2°55.963 0.8 26 12.7 100740 76
2009-06-08 07:51:50 51°13.661 2°55.962 1.1 27 12.7 100730 76
2009-06-08 07:51:56 51°13.661 2°55.962 2 33 12.7 100730 76
2009-06-08 07:52:00 51°13.66 2°55.961 2.3 21 12.7 100730 76
2009-06-08 07:52:05 51°13.66 2°55.962 4.1 75 12.7 100730 76
2009-06-08 07:52:10 51°13.66 2°55.962 4.1 26 12.7 100740 76
2009-06-08 07:52:16 51°13.66 2°55.962 3.4 41 12.7 100740 76
2009-06-08 07:52:20 51°13.66 2°55.962 2.7 21 12.7 100740 76
2009-06-08 07:52:26 51°13.66 2°55.962 2.3 24 12.7 100740 76
2009-06-08 07:52:30 51°13.661 2°55.962 2.6 30 12.7 100740 75
2009-06-08 07:52:36 51°13.661 2°55.963 2.8 30 12.7 100740 75
2009-06-08 07:52:41 51°13.66 2°55.962 3.4 33 12.7 100740 74
2009-06-08 07:52:45 51°13.66 2°55.962 4 27 12.7 100740 74
2009-06-08 07:52:50 51°13.659 2°55.962 3.4 41 12.7 100730 74
2009-06-08 07:52:56 51°13.659 2°55.962 3.7 40 12.7 100730 74
2009-06-08 07:53:01 51°13.659 2°55.962 3.3 39 12.7 100740 74
2009-06-08 07:53:05 51°13.659 2°55.962 3.3 38 12.7 100740 74
2009-06-08 07:53:10 51°13.659 2°55.962 4.3 33 12.7 100730 74
2009-06-08 07:53:15 51°13.659 2°55.962 5 43 12.7 100730 74
2009-06-08 07:53:21 51°13.659 2°55.962 4.6 27 12.7 100730 74
2009-06-08 07:53:26 51°13.659 2°55.962 3.3 33 12.7 100730 74
2009-06-08 07:53:30 51°13.659 2°55.962 3.9 34 12.7 100740 73
2009-06-08 07:53:35 51°13.659 2°55.962 2.8 26 12.7 100740 73
2009-06-08 07:53:41 51°13.659 2°55.962 3.3 21 12.7 100730 73
2009-06-08 07:53:46 51°13.66 2°55.962 2.7 37 12.7 100730 73
2009-06-08 07:53:50 51°13.66 2°55.962 3.6 39 12.7 100730 73
2009-06-08 07:53:56 51°13.661 2°55.962 3.6 34 12.7 100730 73
2009-06-08 07:54:00 51°13.662 2°55.963 2.7 29 12.7 100740 73
2009-06-08 07:54:06 51°13.661 2°55.962 2.9 39 12.7 100740 73
2009-06-08 07:54:10 51°13.66 2°55.962 3 32 12.7 100730 73
2009-06-08 07:54:16 51°13.66 2°55.962 2.8 36 12.7 100730 73
2009-06-08 07:54:21 51°13.66 2°55.962 3.8 36 12.7 100730 73
2009-06-08 07:54:25 51°13.66 2°55.962 3.6 26 12.7 100730 73
2009-06-08 07:54:30 51°13.66 2°55.962 3.1 29 12.7 100740 73
2009-06-08 07:54:35 51°13.66 2°55.962 1.9 5 12.7 100740 73
2009-06-08 07:54:41 51°13.66 2°55.961 2.9 11 12.7 100730 73
2009-06-08 07:54:46 51°13.66 2°55.961 2.9 32 12.7 100730 73
2009-06-08 07:54:50 51°13.66 2°55.962 3 31 12.7 100730 73
2009-06-08 07:54:56 51°13.661 2°55.962 3.6 23 12.7 100730 73
2009-06-08 07:55:01 51°13.661 2°55.961 3.8 28 12.8 100740 73
2009-06-08 07:55:06 51°13.661 2°55.961 3.7 24 12.8 100740 73
2009-06-08 07:55:10 51°13.661 2°55.961 3.7 23 12.8 100740 73
2009-06-08 07:55:16 51°13.66 2°55.961 4.2 30 12.8 100740 73
2009-06-08 07:55:21 51°13.661 2°55.961 3.6 32 12.8 100730 72
2009-06-08 07:55:26 51°13.66 2°55.961 3.1 24 12.8 100730 72
2009-06-08 07:55:30 51°13.66 2°55.961 3.9 25 12.8 100740 71
2009-06-08 07:55:35 51°13.66 2°55.961 4.5 21 12.8 100740 71
2009-06-08 07:55:41 51°13.66 2°55.961 4.8 28 12.8 100740 71
2009-06-08 07:55:45 51°13.66 2°55.961 4.8 39 12.8 100740 71
2009-06-08 07:55:50 51°13.659 2°55.961 4.7 32 12.8 100730 71
2009-06-08 07:55:55 51°13.659 2°55.961 4.5 27 12.8 100730 71
2009-06-08 07:56:00 51°13.659 2°55.961 3.6 19 12.8 100730 71
2009-06-08 07:56:06 51°13.659 2°55.961 2.2 14 12.8 100730 71
2009-06-08 07:56:10 51°13.659 2°55.961 3.2 17 12.8 100730 71
2009-06-08 07:56:15 51°13.66 2°55.961 3.7 25 12.8 100730 71
2009-06-08 07:56:21 51°13.66 2°55.961 4.3 20 12.8 100730 71
2009-06-08 07:56:25 51°13.66 2°55.961 4 20 12.8 100730 71
2009-06-08 07:56:30 51°13.659 2°55.961 4 19 12.8 100730 71
2009-06-08 07:56:36 51°13.659 2°55.961 4.5 21 12.8 100730 71
2009-06-08 07:56:40 51°13.659 2°55.961 4.4 18 12.8 100730 71
2009-06-08 07:56:45 51°13.659 2°55.961 3.5 19 12.8 100730 71
2009-06-08 07:56:50 51°13.659 2°55.96 3 23 12.8 100730 71
2009-06-08 07:56:56 51°13.66 2°55.96 3.1 18 12.8 100730 71
2009-06-08 07:57:00 51°13.66 2°55.96 3.1 21 12.8 100730 71
2009-06-08 07:57:06 51°13.66 2°55.96 2.2 19 12.8 100730 71
2009-06-08 07:57:10 51°13.66 2°55.96 2.8 21 12.8 100730 71
2009-06-08 07:57:16 51°13.66 2°55.96 3.1 21 12.8 100730 71
2009-06-08 07:57:21 51°13.66 2°55.96 3.4 22 12.8 100730 71
2009-06-08 07:57:26 51°13.66 2°55.96 2.9 27 12.8 100730 71
2009-06-08 07:57:30 51°13.66 2°55.96 2.5 21 12.8 100730 71
2009-06-08 07:57:36 51°13.659 2°55.96 2.7 31 12.8 100730 71
2009-06-08 07:57:40 51°13.659 2°55.96 2.3 31 12.8 100730 71
2009-06-08 07:57:45 51°13.659 2°55.96 2.3 40 12.8 100730 71
2009-06-08 07:57:50 51°13.659 2°55.96 3.2 45 12.8 100730 72
2009-06-08 07:57:56 51°13.658 2°55.959 2.5 28 12.8 100730 72
2009-06-08 07:58:01 51°13.658 2°55.959 2.5 36 12.8 100730 72
2009-06-08 07:58:06 51°13.658 2°55.959 2.9 43 12.8 100730 72
2009-06-08 07:58:10 51°13.659 2°55.959 3.2 42 12.8 100730 73
2009-06-08 07:58:15 51°13.659 2°55.959 2.9 81 12.8 100730 73
2009-06-08 07:58:21 51°13.66 2°55.96 3.5 43 12.8 100730 73
2009-06-08 07:58:26 51°13.66 2°55.961 3.4 38 12.8 100730 73
2009-06-08 07:58:30 51°13.66 2°55.961 3.2 30 12.9 100730 72
2009-06-08 07:58:35 51°13.66 2°55.961 2.4 23 12.9 100730 72
2009-06-08 07:58:41 51°13.66 2°55.961 1.4 21 12.8 100730 72
2009-06-08 07:58:46 51°13.66 2°55.961 2.4 30 12.8 100730 72
2009-06-08 07:58:50 51°13.66 2°55.961 2.3 30 12.8 100730 71
2009-06-08 07:58:56 51°13.66 2°55.961 2.1 31 12.8 100730 71
2009-06-08 07:59:00 51°13.66 2°55.961 1.8 22 12.8 100730 71
2009-06-08 07:59:05 51°13.66 2°55.962 2.5 23 12.8 100730 71
2009-06-08 07:59:10 51°13.66 2°55.962 2.8 26 12.8 100730 71
2009-06-08 07:59:16 51°13.66 2°55.962 2.8 27 12.8 100730 71
2009-06-08 07:59:21 51°13.66 2°55.962 2.9 29 12.8 100730 71
2009-06-08 07:59:25 51°13.66 2°55.962 3.1 23 12.8 100730 71
2009-06-08 07:59:30 51°13.66 2°55.961 3.3 24 12.8 100730 71
2009-06-08 07:59:36 51°13.66 2°55.962 3.1 21 12.8 100730 71
2009-06-08 07:59:40 51°13.66 2°55.962 3.1 21 12.8 100730 70
2009-06-08 07:59:46 51°13.66 2°55.962 3.5 29 12.8 100730 70
2009-06-08 07:59:50 51°13.659 2°55.962 2.8 32 12.8 100730 70
2009-06-08 07:59:55 51°13.659 2°55.962 2.6 29 12.8 100730 70
2009-06-08 08:00:01 51°13.659 2°55.962 3.7 27 12.8 100730 70
2009-06-08 08:00:06 51°13.659 2°55.962 3.5 31 12.8 100730 70
2009-06-08 08:00:10 51°13.659 2°55.962 3.7 35 12.8 100730 70
2009-06-08 08:00:16 51°13.659 2°55.962 3.3 40 12.8 100730 70
2009-06-08 08:00:21 51°13.659 2°55.962 3.6 26 12.8 100730 70
2009-06-08 08:00:25 51°13.659 2°55.962 3.5 28 12.8 100730 70
2009-06-08 08:00:30 51°13.66 2°55.962 2.8 32 12.8 100730 70
2009-06-08 08:00:35 51°13.659 2°55.962 3.2 33 12.8 100730 70
2009-06-08 08:00:41 51°13.659 2°55.962 2.4 36 12.8 100730 70
2009-06-08 08:00:46 51°13.659 2°55.962 3.4 39 12.8 100730 70
2009-06-08 08:00:50 51°13.659 2°55.962 3.3 28 12.8 100730 71
2009-06-08 08:00:55 51°13.659 2°55.961 3.8 28 12.8 100730 71
2009-06-08 08:01:01 51°13.66 2°55.96 2.9 32 12.8 100730 71
2009-06-08 08:01:05 51°13.66 2°55.958 3.3 27 12.8 100730 71
2009-06-08 08:01:10 51°13.661 2°55.956 2.1 33 12.8 100730 70
2009-06-08 08:01:16 51°13.662 2°55.952 3.1 35 12.8 100730 70
2009-06-08 08:01:21 51°13.663 2°55.948 4.4 23 12.8 100730 70
2009-06-08 08:01:26 51°13.665 2°55.944 3.6 42 12.8 100730 70
2009-06-08 08:01:32 51°13.666 2°55.939 4.1 27 12.8 100730 70
2009-06-08 08:01:38 51°13.668 2°55.934 3.6 56 12.8 100730 70
2009-06-08 08:01:44 51°13.67 2°55.928 3.4 35 12.8 100720 70
2009-06-08 08:01:49 51°13.672 2°55.923 4.3 43 12.8 100720 70
2009-06-08 08:01:54 51°13.673 2°55.918 4 19 12.8 100730 70
2009-06-08 08:01:59 51°13.675 2°55.912 3.5 78 12.8 100730 70
2009-06-08 08:02:04 51°13.677 2°55.906 3.1 43 12.8 100730 70
2009-06-08 08:02:09 51°13.678 2°55.9 2.6 77 12.8 100730 70
2009-06-08 08:02:14 51°13.68 2°55.893 3.4 22 12.8 100730 70
2009-06-08 08:02:19 51°13.682 2°55.886 4.8 79 12.8 100730 70
2009-06-08 08:02:24 51°13.683 2°55.878 3.9 19 12.8 100730 70
2009-06-08 08:02:29 51°13.684 2°55.87 3.6 80 12.8 100730 70
2009-06-08 08:02:34 51°13.686 2°55.862 3.6 22 12.8 100730 71
2009-06-08 08:02:39 51°13.687 2°55.854 3.8 80 12.8 100730 71
2009-06-08 08:02:44 51°13.689 2°55.847 4 27 12.8 100730 70
2009-06-08 08:02:49 51°13.69 2°55.839 5 79 12.8 100730 70
2009-06-08 08:02:54 51°13.691 2°55.832 4.5 20 12.8 100730 70
2009-06-08 08:02:59 51°13.692 2°55.825 4.4 79 12.8 100730 70
2009-06-08 08:03:04 51°13.693 2°55.818 3.8 45 12.8 100730 70
2009-06-08 08:03:09 51°13.694 2°55.811 3.9 81 12.8 100730 70
2009-06-08 08:03:14 51°13.694 2°55.804 3.8 45 12.8 100720 70
2009-06-08 08:03:19 51°13.695 2°55.797 3.2 44 12.8 100720 70
2009-06-08 08:03:24 51°13.696 2°55.791 3 21 12.8 100730 70
2009-06-08 08:03:29 51°13.696 2°55.785 3.1 44 12.8 100730 70
2009-06-08 08:03:34 51°13.697 2°55.779 2.3 29 12.8 100730 70
2009-06-08 08:03:39 51°13.697 2°55.773 2.8 50 12.8 100730 70
2009-06-08 08:03:44 51°13.697 2°55.768 2.4 22 12.8 100730 70
2009-06-08 08:03:49 51°13.698 2°55.763 1.7 78 12.8 100730 70
2009-06-08 08:03:54 51°13.698 2°55.758 2.6 20 12.8 100730 70
2009-06-08 08:03:58 51°13.698 2°55.755 2.3 57 12.8 100730 70
2009-06-08 08:04:03 51°13.698 2°55.751 1.8 23 12.8 100720 70
2009-06-08 08:04:08 51°13.698 2°55.749 2.3 80 12.8 100720 70
2009-06-08 08:04:13 51°13.698 2°55.746 2.3 28 12.8 100730 71
2009-06-08 08:04:18 51°13.698 2°55.745 2.2 58 12.8 100730 71
2009-06-08 08:04:22 51°13.698 2°55.744 1.9 27 12.8 100730 71
2009-06-08 08:04:27 51°13.698 2°55.743 2.1 81 12.8 100730 71
2009-06-08 08:04:32 51°13.698 2°55.742 1.6 20 12.8 100730 71
2009-06-08 08:04:37 51°13.699 2°55.742 1.4 82 12.8 100730 71
2009-06-08 08:04:42 51°13.7 2°55.742 0.9 28 12.8 100730 71
2009-06-08 08:04:47 51°13.701 2°55.742 1.5 80 12.8 100730 71
2009-06-08 08:04:51 51°13.701 2°55.742 1.5 26 12.8 100730 71
2009-06-08 08:04:56 51°13.702 2°55.743 2.1 74 12.8 100730 71
2009-06-08 08:05:01 51°13.703 2°55.743 2.1 28 12.8 100730 72
2009-06-08 08:05:06 51°13.704 2°55.744 1.8 55 12.8 100730 72
2009-06-08 08:05:11 51°13.706 2°55.745 3 25 12.8 100730 72
2009-06-08 08:05:16 51°13.707 2°55.746 2.8 74 12.8 100730 72
2009-06-08 08:05:20 51°13.708 2°55.746 2.6 21 12.8 100730 72
2009-06-08 08:05:26 51°13.709 2°55.746 3 78 12.8 100730 72
2009-06-08 08:05:30 51°13.709 2°55.746 3 26 12.8 100730 72
2009-06-08 08:05:36 51°13.71 2°55.746 2.5 286 12.8 100730 72
2009-06-08 08:05:40 51°13.71 2°55.746 2.4 26 12.9 100720 72
2009-06-08 08:05:46 51°13.709 2°55.745 3.1 75 12.9 100720 72
2009-06-08 08:05:50 51°13.708 2°55.745 2.6 27 12.9 100730 72
2009-06-08 08:05:56 51°13.707 2°55.744 2.4 73 12.9 100730 72
2009-06-08 08:06:00 51°13.706 2°55.744 2.5 20 12.9 100730 72
2009-06-08 08:06:06 51°13.704 2°55.743 2.3 80 12.9 100730 72
2009-06-08 08:06:10 51°13.703 2°55.743 2.1 28 12.9 100730 71
2009-06-08 08:06:16 51°13.702 2°55.742 2 75 12.9 100730 71
2009-06-08 08:06:21 51°13.701 2°55.742 2.2 28 12.9 100730 71
2009-06-08 08:06:26 51°13.701 2°55.742 1.6 78 12.9 100730 71
2009-06-08 08:06:30 51°13.701 2°55.741 1.9 270 12.9 100730 71
2009-06-08 08:06:36 51°13.701 2°55.741 2.5 282 12.9 100730 71
2009-06-08 08:06:41 51°13.702 2°55.74 3.6 27 12.9 100730 72
2009-06-08 08:06:46 51°13.703 2°55.739 4.1 75 12.9 100730 72
2009-06-08 08:06:50 51°13.704 2°55.738 2.9 270 12.9 100730 72
2009-06-08 08:06:55 51°13.706 2°55.737 2.3 285 12.9 100730 72
2009-06-08 08:07:01 51°13.709 2°55.734 3 255 13 100720 71
2009-06-08 08:07:06 51°13.713 2°55.731 2.6 302 13 100720 71
2009-06-08 08:07:10 51°13.716 2°55.728 2.2 246 13 100730 71
2009-06-08 08:07:15 51°13.722 2°55.723 2.4 282 13 100730 71
2009-06-08 08:07:20 51°13.728 2°55.718 2.4 24 13 100730 70
2009-06-08 08:07:26 51°13.736 2°55.711 2.5 279 13 100730 70
2009-06-08 08:07:30 51°13.741 2°55.707 2.2 315 13 100730 70
2009-06-08 08:07:36 51°13.75 2°55.699 3.4 285 13 100730 70
2009-06-08 08:07:40 51°13.756 2°55.693 2.9 22 13 100730 70
2009-06-08 08:07:46 51°13.765 2°55.684 2.7 286 13 100730 70
2009-06-08 08:07:50 51°13.771 2°55.677 3.6 325 13 100720 70
2009-06-08 08:07:56 51°13.781 2°55.668 3.8 284 13 100720 70
2009-06-08 08:08:00 51°13.788 2°55.662 3.6 320 13 100720 70
2009-06-08 08:08:06 51°13.799 2°55.653 4.9 279 13 100720 70
2009-06-08 08:08:10 51°13.806 2°55.647 5.6 25 13 100720 70
2009-06-08 08:08:16 51°13.817 2°55.638 6.2 280 13 100720 70
2009-06-08 08:08:21 51°13.827 2°55.631 3.3 322 13 100720 70
2009-06-08 08:08:25 51°13.835 2°55.626 4.3 283 13 100720 70
2009-06-08 08:08:30 51°13.844 2°55.619 4.9 322 13.1 100720 70
2009-06-08 08:08:36 51°13.856 2°55.61 5 280 13.1 100720 70
2009-06-08 08:08:41 51°13.866 2°55.603 4.9 19 13.1 100710 69
2009-06-08 08:08:45 51°13.874 2°55.597 5 303 13.1 100710 69
2009-06-08 08:08:50 51°13.884 2°55.589 5.4 319 13.1 100720 69
2009-06-08 08:08:56 51°13.896 2°55.58 5.2 278 13.1 100720 69
2009-06-08 08:09:01 51°13.907 2°55.572 3.1 321 13.1 100720 69
2009-06-08 08:09:06 51°13.917 2°55.564 4.1 286 13.1 100720 69
2009-06-08 08:09:10 51°13.925 2°55.558 6.4 327 13.1 100720 68
2009-06-08 08:09:15 51°13.935 2°55.551 6.6 278 13.1 100720 68
2009-06-08 08:09:21 51°13.948 2°55.542 4.9 25 13.1 100720 68
2009-06-08 08:09:25 51°13.956 2°55.536 5.8 306 13.1 100720 68
2009-06-08 08:09:30 51°13.967 2°55.529 5.2 27 13.2 100720 68
2009-06-08 08:09:35 51°13.977 2°55.521 3.7 281 13.2 100720 68
2009-06-08 08:09:41 51°13.989 2°55.512 3.2 26 13.2 100720 68
2009-06-08 08:09:46 51°14 2°55.504 4.3 281 13.2 100720 68
2009-06-08 08:09:50 51°14.008 2°55.499 4 326 13.2 100720 68
2009-06-08 08:09:55 51°14.019 2°55.491 3.8 281 13.2 100720 68
2009-06-08 08:10:01 51°14.031 2°55.482 5.7 20 13.2 100720 67
2009-06-08 08:10:05 51°14.04 2°55.476 5.5 280 13.2 100720 67
2009-06-08 08:10:10 51°14.05 2°55.469 4.6 24 13.2 100720 68
2009-06-08 08:10:16 51°14.062 2°55.459 4.2 286 13.2 100720 68
2009-06-08 08:10:20 51°14.071 2°55.454 4.2 322 13.2 100720 67
2009-06-08 08:10:25 51°14.081 2°55.446 5.7 325 13.2 100720 67
2009-06-08 08:10:30 51°14.092 2°55.439 6.3 317 13.2 100720 67
2009-06-08 08:10:36 51°14.105 2°55.43 5.9 281 13.2 100720 67
2009-06-08 08:10:41 51°14.115 2°55.422 6 321 13.2 100720 67
2009-06-08 08:10:46 51°14.126 2°55.415 6.5 284 13.2 100720 67
2009-06-08 08:10:50 51°14.134 2°55.409 7.6 316 13.3 100720 68
2009-06-08 08:10:56 51°14.147 2°55.399 6.2 285 13.3 100720 68
2009-06-08 08:11:01 51°14.158 2°55.392 6.6 316 13.3 100720 68
2009-06-08 08:11:06 51°14.168 2°55.383 5.8 285 13.3 100720 68
2009-06-08 08:11:10 51°14.176 2°55.376 8.5 20 13.3 100720 69
2009-06-08 08:11:16 51°14.189 2°55.364 6.6 281 13.3 100720 69
2009-06-08 08:11:21 51°14.199 2°55.354 8.1 25 13.3 100720 69
2009-06-08 08:11:26 51°14.208 2°55.343 8.3 279 13.3 100720 69
2009-06-08 08:11:30 51°14.216 2°55.334 7.4 25 13.3 100710 69
2009-06-08 08:11:35 51°14.225 2°55.322 6.9 279 13.3 100710 69
2009-06-08 08:11:41 51°14.236 2°55.307 8.5 22 13.3 100720 69
2009-06-08 08:11:45 51°14.244 2°55.297 6.3 303 13.3 100720 69
2009-06-08 08:11:50 51°14.253 2°55.284 6.1 19 13.3 100710 69
2009-06-08 08:11:55 51°14.263 2°55.271 7.9 280 13.3 100710 69
2009-06-08 08:12:00 51°14.273 2°55.258 7.7 22 13.2 100710 69
2009-06-08 08:12:06 51°14.284 2°55.241 6.2 279 13.2 100710 69
2009-06-08 08:12:10 51°14.292 2°55.23 6.7 27 13.2 100720 69
2009-06-08 08:12:16 51°14.303 2°55.213 6.2 281 13.2 100720 69
2009-06-08 08:12:20 51°14.311 2°55.201 8.3 319 13.2 100710 70
2009-06-08 08:12:25 51°14.32 2°55.186 8.7 304 13.2 100710 70
2009-06-08 08:12:30 51°14.329 2°55.17 8.5 316 13.2 100720 70
2009-06-08 08:12:36 51°14.34 2°55.152 9.3 282 13.2 100720 70
2009-06-08 08:12:41 51°14.349 2°55.136 8.1 318 13.2 100710 70
2009-06-08 08:12:45 51°14.357 2°55.123 8 280 13.2 100710 70
2009-06-08 08:12:50 51°14.365 2°55.106 9.3 316 13.2 100720 70
2009-06-08 08:12:56 51°14.375 2°55.084 10.2 285 13.2 100720 70
2009-06-08 08:13:01 51°14.383 2°55.066 9.8 317 13.1 100710 69
2009-06-08 08:13:05 51°14.389 2°55.051 8.4 281 13.1 100710 69
2009-06-08 08:13:10 51°14.397 2°55.032 9.6 23 13.1 100710 68
2009-06-08 08:13:16 51°14.406 2°55.009 9.7 307 13.1 100710 68
2009-06-08 08:13:21 51°14.414 2°54.989 8.3 23 13 100700 69
2009-06-08 08:13:25 51°14.419 2°54.974 9.8 309 13 100700 69
2009-06-08 08:13:30 51°14.427 2°54.954 8.6 20 13 100700 68
2009-06-08 08:13:36 51°14.437 2°54.93 10.4 282 13 100700 68
2009-06-08 08:13:41 51°14.445 2°54.91 8.8 316 13 100710 68
2009-06-08 08:13:46 51°14.453 2°54.889 8.5 279 13 100710 68
2009-06-08 08:13:50 51°14.459 2°54.873 8.6 315 12.9 100710 67
2009-06-08 08:13:55 51°14.467 2°54.852 8.2 283 12.9 100710 67
2009-06-08 08:14:01 51°14.478 2°54.827 8.3 315 12.9 100690 69
2009-06-08 08:14:06 51°14.487 2°54.807 10 282 12.9 100690 69
2009-06-08 08:14:10 51°14.495 2°54.79 9.5 20 12.9 100700 68
2009-06-08 08:14:16 51°14.506 2°54.765 9.5 280 12.9 100700 68
2009-06-08 08:14:21 51°14.516 2°54.745 8.1 316 12.9 100700 68
2009-06-08 08:14:26 51°14.526 2°54.725 9.7 285 12.9 100700 68
2009-06-08 08:14:30 51°14.534 2°54.709 8.9 27 12.9 100710 68
2009-06-08 08:14:35 51°14.545 2°54.69 7.9 281 12.9 100710 68
2009-06-08 08:14:41 51°14.558 2°54.667 8.1 20 12.9 100700 68
2009-06-08 08:14:46 51°14.57 2°54.649 8.1 303 12.9 100700 68
2009-06-08 08:14:50 51°14.579 2°54.635 8.7 21 12.9 100700 68
2009-06-08 08:14:56 51°14.594 2°54.616 8 304 12.9 100700 68
2009-06-08 08:15:01 51°14.606 2°54.6 8.3 22 12.9 100710 69
2009-06-08 08:15:05 51°14.617 2°54.588 8.6 283 12.9 100710 69
2009-06-08 08:15:10 51°14.63 2°54.573 7.4 24 12.9 100700 70
2009-06-08 08:15:16 51°14.645 2°54.557 7.3 279 12.9 100700 70
2009-06-08 08:15:21 51°14.658 2°54.543 8.4 21 12.9 100720 70
2009-06-08 08:15:25 51°14.669 2°54.532 6.9 278 12.9 100720 70
2009-06-08 08:15:30 51°14.683 2°54.519 6.5 23 12.8 100710 70
2009-06-08 08:15:36 51°14.699 2°54.504 5.9 303 12.8 100710 70
2009-06-08 08:15:41 51°14.713 2°54.491 7.1 25 12.8 100720 69
2009-06-08 08:15:45 51°14.724 2°54.481 6.8 303 12.8 100720 69
2009-06-08 08:15:50 51°14.737 2°54.468 6.7 21 12.8 100720 69
2009-06-08 08:15:56 51°14.754 2°54.453 7.9 281 12.8 100720 69
2009-06-08 08:16:01 51°14.767 2°54.44 9 28 12.8 100720 69
2009-06-08 08:16:06 51°14.781 2°54.427 8.1 286 12.8 100720 69
2009-06-08 08:16:10 51°14.792 2°54.416 8.6 25 12.8 100720 71
2009-06-08 08:16:15 51°14.805 2°54.403 9.3 282 12.8 100720 71
2009-06-08 08:16:21 51°14.822 2°54.387 9.4 22 12.8 100720 70
2009-06-08 08:16:26 51°14.835 2°54.375 7.7 286 12.8 100720 70
2009-06-08 08:16:30 51°14.846 2°54.364 8.2 27 12.8 100720 71
2009-06-08 08:16:36 51°14.862 2°54.348 9.7 -999 12.8 100720 71
2009-06-08 08:16:41 51°14.875 2°54.335 9.8 26 12.8 100720 71
2009-06-08 08:16:46 51°14.889 2°54.321 7.6 282 12.8 100720 71
2009-06-08 08:16:50 51°14.899 2°54.31 8.8 23 12.8 100720 71
2009-06-08 08:16:55 51°14.912 2°54.297 8.5 286 12.8 100720 71
2009-06-08 08:17:01 51°14.927 2°54.279 7 21 12.8 100710 72
2009-06-08 08:17:06 51°14.94 2°54.265 8.2 282 12.8 100710 72
2009-06-08 08:17:10 51°14.95 2°54.254 8.2 29 12.8 100710 72
2009-06-08 08:17:16 51°14.966 2°54.237 6.3 286 12.8 100710 72
2009-06-08 08:17:21 51°14.978 2°54.222 7.8 26 12.8 100710 72
2009-06-08 08:17:25 51°14.988 2°54.211 6.9 308 12.8 100710 72
2009-06-08 08:17:30 51°15.001 2°54.197 7.6 25 12.7 100720 71
2009-06-08 08:17:36 51°15.016 2°54.179 9.2 -999 12.7 100720 71
2009-06-08 08:17:41 51°15.029 2°54.165 9.8 22 12.7 100720 72
2009-06-08 08:17:46 51°15.042 2°54.15 9.5 281 12.7 100720 72
2009-06-08 08:17:50 51°15.052 2°54.139 7.9 28 12.7 100720 72
2009-06-08 08:17:56 51°15.067 2°54.122 9.2 284 12.7 100720 72
2009-06-08 08:18:01 51°15.08 2°54.107 7.3 24 12.7 100720 73
2009-06-08 08:18:06 51°15.093 2°54.093 8.4 286 12.7 100720 73
2009-06-08 08:18:10 51°15.103 2°54.081 6.8 25 12.8 100720 74
2009-06-08 08:18:16 51°15.118 2°54.064 7.6 283 12.8 100720 74
2009-06-08 08:18:21 51°15.131 2°54.05 7.8 27 12.7 100710 73
2009-06-08 08:18:25 51°15.141 2°54.038 7.1 308 12.7 100710 73
2009-06-08 08:18:30 51°15.153 2°54.024 9.4 25 12.7 100720 72
2009-06-08 08:18:35 51°15.166 2°54.01 8.6 281 12.7 100720 72
2009-06-08 08:18:41 51°15.181 2°53.993 7.2 20 12.7 100730 72
2009-06-08 08:18:46 51°15.194 2°53.978 8.2 280 12.7 100730 72
2009-06-08 08:18:50 51°15.205 2°53.967 8.1 26 12.7 100720 72
2009-06-08 08:18:55 51°15.218 2°53.952 8.5 285 12.7 100720 72
2009-06-08 08:19:01 51°15.233 2°53.936 8.8 27 12.7 100720 72
2009-06-08 08:19:06 51°15.246 2°53.921 7.5 302 12.7 100720 72
2009-06-08 08:19:10 51°15.256 2°53.91 8.3 21 12.7 100720 73
2009-06-08 08:19:16 51°15.272 2°53.893 8.3 280 12.7 100720 73
2009-06-08 08:19:20 51°15.282 2°53.883 6.4 20 12.7 100720 74
2009-06-08 08:19:25 51°15.295 2°53.869 6.5 282 12.7 100720 74
2009-06-08 08:19:30 51°15.309 2°53.856 6.8 24 12.7 100710 74
2009-06-08 08:19:36 51°15.324 2°53.839 8.5 278 12.7 100710 74
2009-06-08 08:19:41 51°15.338 2°53.826 7.3 22 12.7 100720 74
2009-06-08 08:19:45 51°15.348 2°53.815 7.1 284 12.7 100720 74
2009-06-08 08:19:50 51°15.362 2°53.802 7.3 22 12.7 100720 74
2009-06-08 08:19:56 51°15.378 2°53.786 8.5 284 12.7 100720 74
2009-06-08 08:20:01 51°15.391 2°53.773 7.9 25 12.7 100720 74
2009-06-08 08:20:06 51°15.404 2°53.76 7.8 280 12.7 100720 74
2009-06-08 08:20:10 51°15.415 2°53.749 6.4 27 12.7 100720 74
2009-06-08 08:20:16 51°15.431 2°53.733 7.3 281 12.7 100720 74
2009-06-08 08:20:21 51°15.445 2°53.72 6.5 28 12.7 100720 75
2009-06-08 08:20:26 51°15.458 2°53.707 7 280 12.7 100720 75
2009-06-08 08:20:30 51°15.469 2°53.696 7.5 22 12.7 100730 74
2009-06-08 08:20:36 51°15.485 2°53.68 6.4 279 12.7 100730 74
2009-06-08 08:20:41 51°15.498 2°53.667 7.5 23 12.7 100730 74
2009-06-08 08:20:45 51°15.509 2°53.656 6.2 310 12.7 100730 74
2009-06-08 08:20:50 51°15.522 2°53.643 7.9 25 12.7 100720 74
2009-06-08 08:20:55 51°15.536 2°53.629 6.4 283 12.7 100720 74
2009-06-08 08:21:01 51°15.552 2°53.614 7.4 20 12.7 100720 74
2009-06-08 08:21:06 51°15.566 2°53.601 6.5 287 12.7 100720 74
2009-06-08 08:21:10 51°15.577 2°53.591 8.6 23 12.7 100720 74
2009-06-08 08:21:16 51°15.593 2°53.576 7.5 285 12.7 100720 74
2009-06-08 08:21:20 51°15.604 2°53.566 7.3 20 12.8 100720 74
2009-06-08 08:21:25 51°15.618 2°53.553 7.1 304 12.8 100720 74
2009-06-08 08:21:30 51°15.632 2°53.539 8.2 25 12.7 100720 74
2009-06-08 08:21:35 51°15.645 2°53.526 6.8 281 12.7 100720 74
2009-06-08 08:21:41 51°15.662 2°53.511 8.2 22 12.7 100730 75
2009-06-08 08:21:46 51°15.675 2°53.498 7 305 12.7 100730 75
2009-06-08 08:21:50 51°15.686 2°53.488 8.5 21 12.7 100710 74
2009-06-08 08:21:56 51°15.703 2°53.472 8.6 304 12.7 100710 74
2009-06-08 08:22:01 51°15.717 2°53.459 8.4 23 12.7 100720 74
2009-06-08 08:22:05 51°15.728 2°53.449 6.5 283 12.7 100720 74
2009-06-08 08:22:10 51°15.742 2°53.437 6.4 20 12.7 100720 74
2009-06-08 08:22:16 51°15.758 2°53.421 7.5 279 12.7 100720 74
2009-06-08 08:22:21 51°15.771 2°53.407 8 24 12.7 100720 73
2009-06-08 08:22:26 51°15.785 2°53.394 7.8 280 12.7 100720 73
2009-06-08 08:22:30 51°15.796 2°53.383 6.6 27 12.7 100720 73
2009-06-08 08:22:36 51°15.812 2°53.367 7.8 285 12.7 100720 73
2009-06-08 08:22:41 51°15.826 2°53.354 5.8 19 12.7 100720 73
2009-06-08 08:22:46 51°15.839 2°53.341 6.9 279 12.7 100720 73
2009-06-08 08:22:50 51°15.85 2°53.33 7.4 28 12.6 100720 72
2009-06-08 08:22:56 51°15.866 2°53.314 7.3 279 12.6 100720 72
2009-06-08 08:23:01 51°15.88 2°53.301 7.7 28 12.6 100730 72
2009-06-08 08:23:05 51°15.891 2°53.29 8.1 303 12.6 100730 72
2009-06-08 08:23:10 51°15.904 2°53.277 6.1 27 12.6 100720 73
2009-06-08 08:23:15 51°15.918 2°53.263 6 279 12.6 100720 73
2009-06-08 08:23:21 51°15.934 2°53.247 5.8 26 12.7 100720 73
2009-06-08 08:23:26 51°15.948 2°53.234 7.3 280 12.7 100720 73
2009-06-08 08:23:30 51°15.959 2°53.224 7.6 27 12.7 100720 74
2009-06-08 08:23:35 51°15.973 2°53.21 7.3 279 12.7 100720 74
2009-06-08 08:23:40 51°15.986 2°53.197 6.7 25 12.6 100730 72
2009-06-08 08:23:46 51°16.003 2°53.181 8.2 306 12.6 100730 72
2009-06-08 08:23:50 51°16.014 2°53.17 7.6 28 12.6 100720 72
2009-06-08 08:23:56 51°16.03 2°53.154 7.5 286 12.6 100720 72
2009-06-08 08:24:01 51°16.044 2°53.14 7.6 25 12.6 100720 73
2009-06-08 08:24:05 51°16.054 2°53.129 6.1 308 12.6 100720 73
2009-06-08 08:24:10 51°16.068 2°53.115 7.1 21 12.6 100720 72
2009-06-08 08:24:16 51°16.084 2°53.099 5.8 279 12.6 100720 72
2009-06-08 08:24:21 51°16.098 2°53.085 6 21 12.7 100720 72
2009-06-08 08:24:25 51°16.108 2°53.075 7.2 285 12.7 100720 72
2009-06-08 08:24:30 51°16.122 2°53.061 6.8 21 12.6 100720 71
2009-06-08 08:24:36 51°16.139 2°53.047 5.5 309 12.6 100720 71
2009-06-08 08:24:41 51°16.152 2°53.034 6.7 26 12.6 100720 71
2009-06-08 08:24:45 51°16.164 2°53.025 5 306 12.6 100720 71
2009-06-08 08:24:50 51°16.178 2°53.014 5.1 26 12.6 100730 71
2009-06-08 08:24:56 51°16.195 2°53 4.9 280 12.6 100730 71
2009-06-08 08:25:01 51°16.209 2°52.988 6.1 27 12.6 100720 71
2009-06-08 08:25:06 51°16.223 2°52.977 5.1 286 12.6 100720 71
2009-06-08 08:25:10 51°16.235 2°52.968 4.9 21 12.7 100720 71
2009-06-08 08:25:16 51°16.252 2°52.956 6.6 283 12.7 100720 71
2009-06-08 08:25:21 51°16.266 2°52.946 6.5 27 12.7 100730 71
2009-06-08 08:25:25 51°16.278 2°52.938 6.3 302 12.7 100730 71
2009-06-08 08:25:30 51°16.292 2°52.927 4.9 27 12.7 100720 72
2009-06-08 08:25:35 51°16.307 2°52.918 4.8 279 12.7 100720 72
2009-06-08 08:25:41 51°16.324 2°52.906 6.4 27 12.7 100720 72
2009-06-08 08:25:46 51°16.338 2°52.897 6.2 305 12.7 100720 72
2009-06-08 08:25:50 51°16.35 2°52.889 6.1 26 12.8 100720 73
2009-06-08 08:25:56 51°16.367 2°52.878 6.8 282 12.8 100720 73
2009-06-08 08:26:00 51°16.379 2°52.87 7.2 26 12.8 100720 73
2009-06-08 08:26:05 51°16.393 2°52.862 6.4 279 12.8 100720 73
2009-06-08 08:26:10 51°16.408 2°52.852 5.9 28 12.8 100720 73
2009-06-08 08:26:16 51°16.425 2°52.842 7 280 12.8 100720 73
2009-06-08 08:26:21 51°16.44 2°52.832 5.6 26 12.9 100720 74
2009-06-08 08:26:25 51°16.452 2°52.826 6.5 283 12.9 100720 74
2009-06-08 08:26:30 51°16.466 2°52.818 6.6 27 12.9 100720 73
2009-06-08 08:26:36 51°16.484 2°52.807 7.3 283 12.9 100720 73
2009-06-08 08:26:41 51°16.498 2°52.799 6.8 25 12.8 100720 73
2009-06-08 08:26:45 51°16.51 2°52.793 6.8 303 12.8 100720 73
2009-06-08 08:26:50 51°16.525 2°52.785 6.5 24 12.9 100720 72
2009-06-08 08:26:55 51°16.54 2°52.777 6.8 304 12.9 100720 72
2009-06-08 08:27:01 51°16.557 2°52.768 7.1 22 12.8 100720 71
2009-06-08 08:27:05 51°16.569 2°52.761 6.3 281 12.8 100720 71
2009-06-08 08:27:10 51°16.584 2°52.753 6.3 21 12.8 100720 71
2009-06-08 08:27:16 51°16.601 2°52.744 6.1 283 12.8 100720 71
2009-06-08 08:27:21 51°16.616 2°52.736 6.4 22 12.8 100720 71
2009-06-08 08:27:26 51°16.63 2°52.728 6 282 12.8 100720 71
2009-06-08 08:27:30 51°16.642 2°52.721 6.8 27 12.8 100720 70
2009-06-08 08:27:36 51°16.659 2°52.711 7 285 12.8 100720 70
2009-06-08 08:27:41 51°16.674 2°52.703 6.8 21 12.8 100720 70
2009-06-08 08:27:45 51°16.686 2°52.697 6.1 309 12.8 100720 70
2009-06-08 08:27:50 51°16.7 2°52.688 6.2 27 12.8 100730 71
2009-06-08 08:27:55 51°16.715 2°52.68 5.1 285 12.8 100730 71
2009-06-08 08:28:01 51°16.732 2°52.67 6 27 12.8 100720 71
2009-06-08 08:28:06 51°16.746 2°52.662 5.8 310 12.8 100720 71
2009-06-08 08:28:10 51°16.758 2°52.656 4.8 27 12.8 100720 70
2009-06-08 08:28:16 51°16.775 2°52.646 5.4 307 12.8 100720 70
2009-06-08 08:28:21 51°16.789 2°52.638 5 22 12.8 100720 71
2009-06-08 08:28:25 51°16.801 2°52.632 5.4 285 12.8 100720 71
2009-06-08 08:28:30 51°16.815 2°52.623 5.8 24 12.8 100720 71
2009-06-08 08:28:36 51°16.832 2°52.613 6.7 280 12.8 100720 71
2009-06-08 08:28:41 51°16.846 2°52.605 6.7 27 12.8 100720 72
2009-06-08 08:28:46 51°16.861 2°52.598 5.8 280 12.8 100720 72
2009-06-08 08:28:51 51°16.875 2°52.591 6.2 28 12.9 100720 72
2009-06-08 08:28:56 51°16.89 2°52.584 5.1 280 12.9 100720 72
2009-06-08 08:29:01 51°16.904 2°52.578 5.7 20 12.9 100720 72
2009-06-08 08:29:06 51°16.919 2°52.573 6 285 12.9 100720 72
2009-06-08 08:29:10 51°16.93 2°52.568 4.5 23 12.9 100720 72
2009-06-08 08:29:16 51°16.948 2°52.562 4.3 304 12.9 100720 72
2009-06-08 08:29:21 51°16.962 2°52.557 5.2 23 12.9 100720 72
2009-06-08 08:29:26 51°16.977 2°52.552 5.3 279 12.9 100720 72
2009-06-08 08:29:30 51°16.989 2°52.549 5.2 24 12.8 100720 72
2009-06-08 08:29:35 51°17.003 2°52.544 4.5 285 12.8 100720 72
2009-06-08 08:29:41 51°17.021 2°52.54 6.3 27 12.9 100730 72
2009-06-08 08:29:45 51°17.033 2°52.536 5.3 306 12.9 100730 72
2009-06-08 08:29:50 51°17.047 2°52.531 4.4 22 12.8 100730 72
2009-06-08 08:29:56 51°17.065 2°52.526 4.7 309 12.8 100730 72
2009-06-08 08:30:01 51°17.079 2°52.522 4.2 25 12.9 100730 73
2009-06-08 08:30:06 51°17.094 2°52.519 5.2 282 12.9 100730 73
2009-06-08 08:30:10 51°17.105 2°52.516 4 21 12.8 100720 73
2009-06-08 08:30:15 51°17.12 2°52.513 3.7 281 12.8 100720 73
2009-06-08 08:30:21 51°17.138 2°52.511 5.3 22 12.8 100720 73
2009-06-08 08:30:26 51°17.152 2°52.509 4.3 308 12.8 100720 73
2009-06-08 08:30:30 51°17.164 2°52.508 4.5 24 12.8 100720 72
2009-06-08 08:30:36 51°17.182 2°52.506 4.1 286 12.8 100720 72
2009-06-08 08:30:41 51°17.196 2°52.504 5.1 22 12.8 100720 73
2009-06-08 08:30:46 51°17.211 2°52.503 4.8 306 12.8 100720 73
2009-06-08 08:30:50 51°17.223 2°52.502 5.7 22 12.8 100720 73
2009-06-08 08:30:56 51°17.24 2°52.501 5.7 282 12.8 100720 73
2009-06-08 08:31:01 51°17.255 2°52.5 4.8 22 12.9 100720 74